Location: Bonn
(50.7330°N, 7.1000°E)
Time: 02:44:12
(UTC+02:00)

Cosmos 1933 Rocket - Visible Passes

Search period start: 23 October 2017 00:00
Search period end: 01 November 2017 23:00
Orbit: 606 x 631 km, 82.5° (Epoch: 22 October)

Date Brightness Start Highest point End Pass type
(mag) Time Alt. Az. Time Alt. Az. Time Alt. Az.
23 Oct 4.0 20:05:29 10° N 20:09:35 39° ENE 20:10:18 36° E visible
23 Oct 5.6 21:43:43 10° NNW 21:47:16 25° W 21:47:30 25° W visible
24 Oct 3.4 20:22:33 10° N 20:26:55 67° ENE 20:28:10 44° SE visible
24 Oct 6.3 22:01:45 10° NW 22:04:14 15° W 22:05:22 14° W visible
25 Oct 5.1 19:03:04 10° NNE 19:05:46 16° ENE 19:08:27 10° E visible
25 Oct 3.7 20:39:47 10° NNW 20:44:09 71° W 20:46:16 29° S visible
26 Oct 4.6 19:19:38 10° NNE 19:23:17 25° ENE 19:26:55 10° SE visible
26 Oct 4.8 20:57:11 10° NNW 21:01:18 40° W 21:04:50 13° SSW visible
27 Oct 3.9 19:36:33 10° N 19:40:42 40° ENE 19:44:51 10° SE visible
27 Oct 5.8 21:14:49 10° NW 21:18:21 24° W 21:21:52 10° SW visible
28 Oct 3.4 19:53:38 10° N 19:58:01 70° E 20:02:24 10° SSE visible
28 Oct 6.5 21:32:55 10° NW 21:35:19 15° W 21:37:43 10° WSW visible
29 Oct 3.8 19:10:53 10° NNW 19:15:15 68° W 19:19:37 10° S visible
30 Oct 4.5 17:50:42 10° NNE 17:54:24 26° ENE 17:58:05 10° SE visible
30 Oct 5.0 19:28:17 10° NNW 19:32:22 39° W 19:36:28 10° SSW visible
31 Oct 6.8 06:29:32 10° ESE 06:31:18 12° E 06:33:05 10° ENE visible
31 Oct 3.9 18:07:36 10° N 18:11:48 42° ENE 18:15:59 10° SE visible
31 Oct 5.9 19:45:57 10° NW 19:49:26 23° W 19:52:55 10° SW visible
01 Nov 6.5 06:45:01 10° SE 06:48:14 21° E 06:51:28 10° NE visible
01 Nov 3.5 18:24:42 10° N 18:29:07 73° ENE 18:33:31 10° SSE visible
01 Nov 6.7 20:04:04 10° NW 20:06:23 14° W 20:08:43 10° WSW visible
